CW4115 Weather Reports


time (UTC)temp
C
wind
direction
speed
KPH
gust
KPH
rain 1hr
cm
rain 24hr
cm
rain mn
cm
humidity
%
barometer
mb
20260503193334 17 169 4.8 12.9 0.00 0.00 0.00 58 1010.8
20260503190326 17 185 4.8 11.3 0.00 0.00 0.00 60 1010.9
20260503183342 16 171 4.8 11.3 0.00 0.00 0.00 64 1011.0
20260503180330 15 271 1.6 8.0 0.00 0.00 0.00 69 1011.1
20260503173334 14 244 6.4 14.5 0.00 0.00 0.00 72 1011.0
20260503170326 15 222 3.2 9.7 0.00 0.00 0.00 71 1010.9
20260503150330 13 360 4.8 8.0 0.00 0.00 0.00 74 1010.4
20260503130325 13 360 8.0 9.7 0.00 0.00 0.00 75 1008.9
20260503110339 13 360 0.0 1.6 0.00 0.00 0.00 76 1009.1
20260503090317 13 269 0.0 3.2 0.00 0.00 0.00 76 1009.4
20260503080357 13 360 1.6 3.2 0.00 0.00 0.00 76 1009.8
20260503070344 13 360 1.6 4.8 0.00 0.00 0.00 76 1009.9
20260503053332 13 360 3.2 11.3 0.00 0.00 0.00 75 1010.4
20260503050354 13 360 4.8 12.9 0.00 0.00 0.00 75 1010.3
20260503043334 13 360 3.2 11.3 0.00 0.00 0.00 74 1010.0
20260503040357 13 360 3.2 11.3 0.00 0.00 0.00 74 1009.9
20260503033335 14 360 6.4 16.1 0.00 0.00 0.00 73 1009.5
20260503030333 14 360 3.2 12.9 0.00 0.00 0.00 72 1009.3
20260503023417 15 360 6.4 12.9 0.00 0.00 0.00 72 1008.9
20260503020409 15 360 9.7 16.1 0.00 0.00 0.00 71 1008.9
20260503013351 16 339 6.4 16.1 0.00 0.00 0.00 71 1009.0
20260503010346 16 5 8.0 24.1 0.00 0.00 0.00 71 1008.9
20260503003356 17 315 4.8 17.7 0.00 0.00 0.00 69 1009.1
20260503000335 17 346 6.4 20.9 0.00 0.00 0.00 67 1009.1
20260502233335 18 344 9.7 20.9 0.00 0.00 0.00 66 1009.4
20260502230336 18 334 9.7 19.3 0.00 0.00 0.00 64 1009.6
20260502223338 19 360 9.7 19.3 0.00 0.00 0.00 64 1009.9
20260502220334 20 5 6.4 12.9 0.00 0.00 0.00 63 1010.4
20260502213340 20 355 9.7 12.9 0.00 0.00 0.00 64 1010.4
20260502210350 20 19 8.0 17.7 0.00 0.00 0.00 64 1010.8
20260502203350 19 342 4.8 12.9 0.00 0.00 0.00 65 1011.0
20260502200343 18 297 0.0 11.3 0.00 0.00 0.00 67 1011.5